| time (UTC) | temp F | wind direction | speed MPH | gust MPH | rain 1hr in | rain 24hr in | rain mn in | humidity % | barometer mb |
| 20260906192014 | 103 | 338 | 3.0 | 7.0 | 0.00 | 0.00 | 0.00 | 34 | 1012.7 |
| 20260906191516 | 103 | 217 | 1.0 | 7.0 | 0.00 | 0.00 | 0.00 | 34 | 1012.9 |
| 20260906191004 | 103 | 290 | 3.0 | 6.0 | 0.00 | 0.00 | 0.00 | 35 | 1012.9 |
| 20260906190511 | 102 | 210 | 2.0 | 6.0 | 0.00 | 0.00 | 0.00 | 35 | 1013.0 |
| 20260906190027 | 101 | 326 | 0.0 | 6.0 | 0.00 | 0.00 | 0.00 | 35 | 1013.0 |
| 20260906185513 | 102 | 334 | 1.0 | 10.0 | 0.00 | 0.00 | 0.00 | 37 | 1013.1 |
| 20260906185015 | 101 | 283 | 3.0 | 10.0 | 0.00 | 0.00 | 0.00 | 34 | 1013.2 |
| 20260906184525 | 102 | 334 | 3.0 | 5.0 | 0.00 | 0.00 | 0.00 | 39 | 1013.2 |
| 20260906184016 | 102 | 318 | 2.0 | 5.0 | 0.00 | 0.00 | 0.00 | 38 | 1013.3 |
| 20260906183510 | 101 | 333 | 3.0 | 6.0 | 0.00 | 0.00 | 0.00 | 36 | 1013.4 |
| 20260906183009 | 101 | 304 | 0.0 | 6.0 | 0.00 | 0.00 | 0.00 | 38 | 1013.6 |
| 20260906182514 | 101 | 235 | 2.0 | 4.0 | 0.00 | 0.00 | 0.00 | 38 | 1013.5 |
| 20260906182011 | 100 | 186 | 0.0 | 4.0 | 0.00 | 0.00 | 0.00 | 37 | 1013.7 |
| 20260906181537 | 100 | 270 | 1.0 | 7.0 | 0.00 | 0.00 | 0.00 | 37 | 1013.8 |
| 20260906181012 | 101 | 262 | 4.0 | 7.0 | 0.00 | 0.00 | 0.00 | 38 | 1013.9 |
| 20260906180508 | 101 | 205 | 3.0 | 4.0 | 0.00 | 0.00 | 0.00 | 39 | 1013.9 |
| 20260906180036 | 100 | 327 | 1.0 | 5.0 | 0.00 | 0.00 | 0.00 | 37 | 1014.0 |
| 20260906175511 | 100 | 279 | 3.0 | 5.0 | 0.00 | 0.00 | 0.00 | 38 | 1014.2 |
| 20260906175008 | 100 | 248 | 1.0 | 4.0 | 0.00 | 0.00 | 0.00 | 40 | 1014.3 |
| 20260906174530 | 100 | 248 | 2.0 | 5.0 | 0.00 | 0.00 | 0.00 | 39 | 1014.4 |
| 20260906174010 | 100 | 297 | 3.0 | 5.0 | 0.00 | 0.00 | 0.00 | 40 | 1014.4 |
| 20260906173512 | 99 | 241 | 2.0 | 5.0 | 0.00 | 0.00 | 0.00 | 41 | 1014.5 |
| 20260906173026 | 99 | 210 | 2.0 | 5.0 | 0.00 | 0.00 | 0.00 | 41 | 1014.5 |
| 20260906172507 | 99 | 299 | 1.0 | 5.0 | 0.00 | 0.00 | 0.00 | 41 | 1014.6 |
| 20260906172018 | 100 | 281 | 2.0 | 5.0 | 0.00 | 0.00 | 0.00 | 46 | 1014.7 |
| 20260906171520 | 99 | 233 | 1.0 | 4.0 | 0.00 | 0.00 | 0.00 | 44 | 1014.7 |
| 20260906171005 | 98 | 39 | 0.0 | 5.0 | 0.00 | 0.00 | 0.00 | 42 | 1014.9 |
| 20260906170516 | 99 | 341 | 3.0 | 5.0 | 0.00 | 0.00 | 0.00 | 47 | 1015.0 |
| 20260906170021 | 99 | 252 | 1.0 | 5.0 | 0.00 | 0.00 | 0.00 | 45 | 1015.1 |
| 20260906165520 | 97 | 306 | 2.0 | 5.0 | 0.00 | 0.00 | 0.00 | 47 | 1015.2 |
| 20260906165017 | 98 | 283 | 3.0 | 5.0 | 0.00 | 0.00 | 0.00 | 45 | 1015.2 |
| 20260906164513 | 98 | 259 | 1.0 | 3.0 | 0.00 | 0.00 | 0.00 | 47 | 1015.2 |
| 20260906164014 | 97 | 356 | 0.0 | 3.0 | 0.00 | 0.00 | 0.00 | 47 | 1015.3 |
| 20260906163516 | 96 | 359 | 1.0 | 3.0 | 0.00 | 0.00 | 0.00 | 48 | 1015.3 |
| 20260906163027 | 95 | 15 | 0.0 | 2.0 | 0.00 | 0.00 | 0.00 | 49 | 1015.4 |
| 20260906162516 | 95 | 15 | 1.0 | 3.0 | 0.00 | 0.00 | 0.00 | 47 | 1015.4 |
| 20260906162013 | 96 | 15 | 1.0 | 3.0 | 0.00 | 0.00 | 0.00 | 49 | 1015.3 |
| 20260906161529 | 96 | 352 | 1.0 | 3.0 | 0.00 | 0.00 | 0.00 | 51 | 1015.3 |
| 20260906161018 | 95 | 358 | 1.0 | 3.0 | 0.00 | 0.00 | 0.00 | 49 | 1015.2 |
| 20260906160510 | 96 | 359 | 0.0 | 3.0 | 0.00 | 0.00 | 0.00 | 1015.3 | |
| 20260906160033 | 95 | 358 | 2.0 | 3.0 | 0.00 | 0.00 | 0.00 | 1015.3 | |
| 20260906155514 | 94 | 294 | 0.0 | 4.0 | 0.00 | 0.00 | 0.00 | 1015.4 | |
| 20260906155022 | 94 | 294 | 1.0 | 4.0 | 0.00 | 0.00 | 0.00 | 54 | 1015.4 |
| 20260906154529 | 94 | 283 | 3.0 | 4.0 | 0.00 | 0.00 | 0.00 | 54 | 1015.4 |
| 20260906154010 | 93 | 285 | 2.0 | 4.0 | 0.00 | 0.00 | 0.00 | 53 | 1015.4 |
| 20260906153515 | 93 | 281 | 2.0 | 4.0 | 0.00 | 0.00 | 0.00 | 54 | 1015.3 |
| 20260906153029 | 92 | 244 | 2.0 | 4.0 | 0.00 | 0.00 | 0.00 | 55 | 1015.3 |
| 20260906152508 | 92 | 326 | 0.0 | 3.0 | 0.00 | 0.00 | 0.00 | 56 | 1015.3 |
| 20260906152015 | 93 | 339 | 1.0 | 3.0 | 0.00 | 0.00 | 0.00 | 56 | 1015.2 |
| 20260906151532 | 91 | 357 | 1.0 | 2.0 | 0.00 | 0.00 | 0.00 | 58 | 1015.2 |
| 20260906151015 | 91 | 357 | 1.0 | 2.0 | 0.00 | 0.00 | 0.00 | 57 | 1015.2 |
| 20260906150515 | 91 | 360 | 0.0 | 2.0 | 0.00 | 0.00 | 0.00 | 58 | 1015.1 |
| 20260906150025 | 90 | 1 | 0.0 | 2.0 | 0.00 | 0.00 | 0.00 | 59 | 1015.1 |
| 20260906145504 | 89 | 325 | 0.0 | 2.0 | 0.00 | 0.00 | 0.00 | 62 | 1015.1 |
| 20260906145003 | 88 | 325 | 1.0 | 2.0 | 0.00 | 0.00 | 0.00 | 61 | 1015.1 |
| 20260906144529 | 88 | 325 | 0.0 | 2.0 | 0.00 | 0.00 | 0.00 | 62 | 1015.0 |
| 20260906144004 | 87 | 325 | 0.0 | 2.0 | 0.00 | 0.00 | 0.00 | 61 | 1015.0 |
| 20260906143514 | 88 | 326 | 0.0 | 2.0 | 0.00 | 0.00 | 0.00 | 62 | 1015.0 |
| 20260906143012 | 88 | 325 | 1.0 | 2.0 | 0.00 | 0.00 | 0.00 | 61 | 1015.0 |
| 20260906142503 | 88 | 327 | 1.0 | 2.0 | 0.00 | 0.00 | 0.00 | 63 | 1015.0 |
| 20260906142012 | 87 | 327 | 1.0 | 2.0 | 0.00 | 0.00 | 0.00 | 61 | 1014.9 |
| 20260906141516 | 86 | 337 | 1.0 | 2.0 | 0.00 | 0.00 | 0.00 | 63 | 1014.9 |
| 20260906141003 | 86 | 337 | 0.0 | 2.0 | 0.00 | 0.00 | 0.00 | 64 | 1014.9 |
| 20260906140512 | 85 | 337 | 1.0 | 2.0 | 0.00 | 0.00 | 0.00 | 64 | 1014.9 |
| 20260906140012 | 85 | 337 | 0.0 | 3.0 | 0.00 | 0.00 | 0.00 | 67 | 1014.8 |
| 20260906135503 | 84 | 337 | 1.0 | 3.0 | 0.00 | 0.00 | 0.00 | 68 | 1014.7 |
| 20260906135010 | 83 | 239 | 0.0 | 2.0 | 0.00 | 0.00 | 0.00 | 70 | 1014.6 |
| 20260906134531 | 82 | 237 | 0.0 | 2.0 | 0.00 | 0.00 | 0.00 | 71 | 1014.6 |
| 20260906134014 | 82 | 237 | 1.0 | 2.0 | 0.00 | 0.00 | 0.00 | 71 | 1014.6 |
| 20260906133509 | 81 | 235 | 1.0 | 3.0 | 0.00 | 0.00 | 0.00 | 73 | 1014.6 |
| 20260906133006 | 81 | 235 | 1.0 | 3.0 | 0.00 | 0.00 | 0.00 | 74 | 1014.7 |
| 20260906132510 | 80 | 219 | 0.0 | 3.0 | 0.00 | 0.00 | 0.00 | 75 | 1014.6 |
| 20260906132006 | 79 | 218 | 0.0 | 2.0 | 0.00 | 0.00 | 0.00 | 76 | 1014.7 |
| 20260906131504 | 78 | 218 | 0.0 | 2.0 | 0.00 | 0.00 | 0.00 | 77 | 1014.6 |
| 20260906131011 | 77 | 218 | 1.0 | 2.0 | 0.00 | 0.00 | 0.00 | 80 | 1014.6 |
| 20260906130503 | 77 | 213 | 0.0 | 0.0 | 0.00 | 0.00 | 0.00 | 81 | 1014.6 |
| 20260906130023 | 76 | 213 | 0.0 | 0.0 | 0.00 | 0.00 | 0.00 | 81 | 1014.7 |
| 20260906125508 | 76 | 213 | 0.0 | 2.0 | 0.00 | 0.00 | 0.00 | 82 | 1014.6 |
| 20260906125006 | 76 | 213 | 0.0 | 2.0 | 0.00 | 0.00 | 0.00 | 81 | 1014.6 |
| 20260906124520 | 76 | 213 | 0.0 | 1.0 | 0.00 | 0.00 | 0.00 | 81 | 1014.4 |
| 20260906124008 | 75 | 213 | 0.0 | 1.0 | 0.00 | 0.00 | 0.00 | 82 | 1014.4 |
| 20260906123504 | 75 | 213 | 0.0 | 0.0 | 0.00 | 0.00 | 0.00 | 81 | 1014.4 |
| 20260906123035 | 75 | 213 | 0.0 | 1.0 | 0.00 | 0.00 | 0.00 | 81 | 1014.4 |
| 20260906122517 | 75 | 213 | 0.0 | 1.0 | 0.00 | 0.00 | 0.00 | 81 | 1014.4 |
| 20260906122018 | 75 | 213 | 0.0 | 0.0 | 0.00 | 0.00 | 0.00 | 81 | 1014.4 |
| 20260906121518 | 75 | 248 | 0.0 | 0.0 | 0.00 | 0.00 | 0.00 | 81 | 1014.4 |
| 20260906121018 | 75 | 248 | 0.0 | 0.0 | 0.00 | 0.00 | 0.00 | 82 | 1014.4 |
| 20260906120521 | 75 | 248 | 0.0 | 0.0 | 0.00 | 0.00 | 0.00 | 82 | 1014.3 |
| 20260906120012 | 75 | 248 | 0.0 | 0.0 | 0.00 | 0.00 | 0.00 | 81 | 1014.1 |
| 20260906115504 | 76 | 248 | 0.0 | 0.0 | 0.00 | 0.00 | 0.00 | 81 | 1014.1 |
| 20260906115012 | 76 | 248 | 0.0 | 0.0 | 0.00 | 0.00 | 0.00 | 81 | 1014.0 |
| 20260906114516 | 76 | 248 | 0.0 | 0.0 | 0.00 | 0.00 | 0.00 | 81 | 1013.9 |
| 20260906114015 | 76 | 248 | 0.0 | 0.0 | 0.00 | 0.00 | 0.00 | 81 | 1013.9 |
| 20260906113511 | 76 | 248 | 0.0 | 0.0 | 0.00 | 0.00 | 0.00 | 80 | 1013.9 |
| 20260906113032 | 76 | 248 | 0.0 | 0.0 | 0.00 | 0.00 | 0.00 | 80 | 1013.9 |
| 20260906112514 | 76 | 248 | 0.0 | 0.0 | 0.00 | 0.00 | 0.00 | 80 | 1013.8 |
| 20260906112016 | 76 | 248 | 0.0 | 0.0 | 0.00 | 0.00 | 0.00 | 80 | 1013.7 |
| 20260906111505 | 76 | 248 | 0.0 | 0.0 | 0.00 | 0.00 | 0.00 | 80 | 1013.7 |
| 20260906111013 | 76 | 248 | 0.0 | 0.0 | 0.00 | 0.00 | 0.00 | 80 | 1013.5 |
| 20260906110505 | 76 | 248 | 0.0 | 0.0 | 0.00 | 0.00 | 0.00 | 80 | 1013.5 |
| 20260906110027 | 76 | 248 | 0.0 | 0.0 | 0.00 | 0.00 | 0.00 | 80 | 1013.4 |
| 20260906105514 | 76 | 248 | 0.0 | 0.0 | 0.00 | 0.00 | 0.00 | 80 | 1013.5 |
| 20260906105008 | 77 | 248 | 0.0 | 0.0 | 0.00 | 0.00 | 0.00 | 80 | 1013.5 |
| 20260906104527 | 77 | 248 | 0.0 | 0.0 | 0.00 | 0.00 | 0.00 | 80 | 1013.4 |
| 20260906104008 | 77 | 248 | 0.0 | 0.0 | 0.00 | 0.00 | 0.00 | 80 | 1013.5 |
| 20260906103515 | 77 | 248 | 0.0 | 0.0 | 0.00 | 0.00 | 0.00 | 80 | 1013.5 |
| 20260906103024 | 77 | 248 | 0.0 | 0.0 | 0.00 | 0.00 | 0.00 | 80 | 1013.5 |
| 20260906102506 | 77 | 248 | 0.0 | 0.0 | 0.00 | 0.00 | 0.00 | 80 | 1013.5 |
| 20260906102016 | 77 | 248 | 0.0 | 0.0 | 0.00 | 0.00 | 0.00 | 80 | 1013.5 |
| 20260906101533 | 77 | 248 | 0.0 | 0.0 | 0.00 | 0.00 | 0.00 | 80 | 1013.5 |
| 20260906101016 | 77 | 248 | 0.0 | 0.0 | 0.00 | 0.00 | 0.00 | 80 | 1013.5 |
| 20260906100515 | 77 | 248 | 0.0 | 0.0 | 0.00 | 0.00 | 0.00 | 80 | 1013.4 |
| 20260906100023 | 77 | 248 | 0.0 | 0.0 | 0.00 | 0.00 | 0.00 | 80 | 1013.5 |
| 20260906095520 | 77 | 248 | 0.0 | 0.0 | 0.00 | 0.00 | 0.00 | 80 | 1013.6 |
| 20260906095014 | 77 | 248 | 0.0 | 0.0 | 0.00 | 0.00 | 0.00 | 80 | 1013.5 |
| 20260906094516 | 78 | 248 | 0.0 | 0.0 | 0.00 | 0.00 | 0.00 | 81 | 1013.4 |
| 20260906094015 | 78 | 248 | 0.0 | 0.0 | 0.00 | 0.00 | 0.00 | 81 | 1013.5 |
| 20260906093513 | 78 | 248 | 0.0 | 0.0 | 0.00 | 0.00 | 0.00 | 81 | 1013.4 |
| 20260906093011 | 78 | 248 | 0.0 | 0.0 | 0.00 | 0.00 | 0.00 | 82 | 1013.2 |
| 20260906092516 | 78 | 248 | 0.0 | 0.0 | 0.00 | 0.00 | 0.00 | 81 | 1013.3 |
| 20260906092010 | 78 | 248 | 0.0 | 0.0 | 0.00 | 0.00 | 0.00 | 81 | 1013.3 |
| 20260906091533 | 78 | 248 | 0.0 | 0.0 | 0.00 | 0.00 | 0.00 | 81 | 1013.2 |
| 20260906091016 | 78 | 248 | 0.0 | 0.0 | 0.00 | 0.00 | 0.00 | 81 | 1013.2 |
| 20260906090508 | 78 | 248 | 0.0 | 0.0 | 0.00 | 0.00 | 0.00 | 81 | 1013.2 |
| 20260906090032 | 78 | 248 | 0.0 | 0.0 | 0.00 | 0.00 | 0.00 | 80 | 1013.2 |
| 20260906085511 | 78 | 248 | 0.0 | 0.0 | 0.00 | 0.00 | 0.00 | 80 | 1013.1 |
| 20260906085007 | 79 | 248 | 0.0 | 0.0 | 0.00 | 0.00 | 0.00 | 80 | 1013.1 |
| 20260906084532 | 79 | 248 | 0.0 | 0.0 | 0.00 | 0.00 | 0.00 | 79 | 1013.1 |
| 20260906084012 | 79 | 248 | 0.0 | 0.0 | 0.00 | 0.00 | 0.00 | 79 | 1012.9 |
| 20260906083518 | 79 | 248 | 0.0 | 0.0 | 0.00 | 0.00 | 0.00 | 78 | 1012.9 |
| 20260906083026 | 79 | 248 | 0.0 | 0.0 | 0.00 | 0.00 | 0.00 | 78 | 1012.9 |
| 20260906082507 | 79 | 248 | 0.0 | 0.0 | 0.00 | 0.00 | 0.00 | 77 | 1012.9 |
| 20260906082019 | 79 | 248 | 0.0 | 0.0 | 0.00 | 0.00 | 0.00 | 76 | 1012.9 |
| 20260906081523 | 79 | 248 | 0.0 | 0.0 | 0.00 | 0.00 | 0.00 | 77 | 1012.8 |
| 20260906081007 | 79 | 248 | 0.0 | 0.0 | 0.00 | 0.00 | 0.00 | 76 | 1012.8 |
| 20260906080517 | 79 | 248 | 0.0 | 0.0 | 0.00 | 0.00 | 0.00 | 75 | 1012.8 |
| 20260906080019 | 79 | 248 | 0.0 | 2.0 | 0.00 | 0.00 | 0.00 | 74 | 1012.8 |
| 20260906075517 | 79 | 248 | 0.0 | 2.0 | 0.00 | 0.00 | 0.00 | 74 | 1012.9 |
| 20260906075016 | 79 | 248 | 0.0 | 0.0 | 0.00 | 0.00 | 0.00 | 74 | 1012.9 |
| 20260906074517 | 79 | 248 | 0.0 | 0.0 | 0.00 | 0.00 | 0.00 | 73 | 1012.7 |
| 20260906074013 | 79 | 248 | 0.0 | 0.0 | 0.00 | 0.00 | 0.00 | 73 | 1012.7 |
| 20260906073511 | 79 | 248 | 0.0 | 0.0 | 0.00 | 0.00 | 0.00 | 73 | 1012.7 |
| 20260906073013 | 79 | 248 | 0.0 | 0.0 | 0.00 | 0.00 | 0.00 | 73 | 1012.8 |
| 20260906072516 | 80 | 248 | 0.0 | 0.0 | 0.00 | 0.00 | 0.00 | 73 | 1012.8 |
| 20260906072011 | 80 | 248 | 0.0 | 0.0 | 0.00 | 0.00 | 0.00 | 73 | 1012.8 |
| 20260906071533 | 80 | 248 | 0.0 | 0.0 | 0.00 | 0.00 | 0.00 | 72 | 1012.8 |
| 20260906071017 | 80 | 248 | 0.0 | 0.0 | 0.00 | 0.00 | 0.00 | 73 | 1012.9 |
| 20260906070515 | 80 | 248 | 0.0 | 0.0 | 0.00 | 0.00 | 0.00 | 72 | 1012.9 |
| 20260906070031 | 80 | 248 | 0.0 | 0.0 | 0.00 | 0.00 | 0.00 | 72 | 1012.9 |
| 20260906065515 | 80 | 248 | 0.0 | 0.0 | 0.00 | 0.00 | 0.00 | 72 | 1012.9 |
| 20260906065010 | 80 | 248 | 0.0 | 0.0 | 0.00 | 0.00 | 0.00 | 71 | 1012.9 |
| 20260906064530 | 80 | 248 | 0.0 | 0.0 | 0.00 | 0.00 | 0.00 | 71 | 1012.9 |
| 20260906064016 | 80 | 248 | 0.0 | 0.0 | 0.00 | 0.00 | 0.00 | 71 | 1012.9 |
| 20260906063520 | 80 | 248 | 0.0 | 0.0 | 0.00 | 0.00 | 0.00 | 71 | 1012.9 |
| 20260906063032 | 80 | 248 | 0.0 | 0.0 | 0.00 | 0.00 | 0.00 | 70 | 1012.9 |
| 20260906062509 | 80 | 248 | 0.0 | 0.0 | 0.00 | 0.00 | 0.00 | 70 | 1013.0 |
| 20260906062015 | 81 | 248 | 0.0 | 0.0 | 0.00 | 0.00 | 0.00 | 70 | 1012.9 |
| 20260906061532 | 81 | 248 | 0.0 | 0.0 | 0.00 | 0.00 | 0.00 | 70 | 1012.9 |
| 20260906061009 | 81 | 248 | 0.0 | 0.0 | 0.00 | 0.00 | 0.00 | 69 | 1013.0 |
| 20260906060517 | 81 | 248 | 0.0 | 0.0 | 0.00 | 0.00 | 0.00 | 69 | 1013.0 |
| 20260906060032 | 81 | 248 | 0.0 | 0.0 | 0.00 | 0.00 | 0.00 | 69 | 1013.0 |
| 20260906055520 | 81 | 248 | 0.0 | 0.0 | 0.00 | 0.00 | 0.00 | 69 | 1012.9 |
| 20260906055020 | 81 | 248 | 0.0 | 0.0 | 0.00 | 0.00 | 0.00 | 69 | 1012.9 |
| 20260906054547 | 81 | 248 | 0.0 | 0.0 | 0.00 | 0.00 | 0.00 | 69 | 1012.9 |
| 20260906054019 | 81 | 248 | 0.0 | 0.0 | 0.00 | 0.00 | 0.00 | 68 | 1012.9 |
| 20260906053514 | 81 | 248 | 0.0 | 0.0 | 0.00 | 0.00 | 0.00 | 68 | 1012.9 |
| 20260906053017 | 81 | 248 | 0.0 | 0.0 | 0.00 | 0.00 | 0.00 | 68 | 1012.9 |
| 20260906052516 | 82 | 248 | 0.0 | 0.0 | 0.00 | 0.00 | 0.00 | 68 | 1012.8 |
| 20260906052016 | 82 | 248 | 0.0 | 0.0 | 0.00 | 0.00 | 0.00 | 68 | 1012.7 |
| 20260906051539 | 82 | 248 | 0.0 | 0.0 | 0.00 | 0.00 | 0.00 | 67 | 1012.7 |
| 20260906051016 | 82 | 248 | 0.0 | 0.0 | 0.00 | 0.00 | 0.00 | 67 | 1012.8 |
| 20260906050513 | 82 | 248 | 0.0 | 0.0 | 0.00 | 0.00 | 0.00 | 67 | 1012.7 |
| 20260906050037 | 83 | 248 | 0.0 | 0.0 | 0.00 | 0.00 | 0.00 | 67 | 1012.7 |
| 20260906045515 | 83 | 248 | 0.0 | 0.0 | 0.00 | 0.00 | 0.00 | 67 | 1012.8 |
| 20260906045018 | 83 | 248 | 0.0 | 2.0 | 0.00 | 0.00 | 0.00 | 67 | 1012.9 |
| 20260906044531 | 83 | 248 | 0.0 | 5.0 | 0.00 | 0.00 | 0.00 | 66 | 1012.9 |
| 20260906044002 | 83 | 248 | 3.0 | 5.0 | 0.00 | 0.00 | 0.00 | 67 | 1012.9 |
| 20260906043509 | 83 | 296 | 1.0 | 2.0 | 0.00 | 0.00 | 0.00 | 67 | 1012.7 |
| 20260906043014 | 83 | 298 | 0.0 | 0.0 | 0.00 | 0.00 | 0.00 | 66 | 1012.7 |
| 20260906042503 | 83 | 298 | 0.0 | 0.0 | 0.00 | 0.00 | 0.00 | 66 | 1012.7 |
| 20260906042008 | 83 | 298 | 0.0 | 0.0 | 0.00 | 0.00 | 0.00 | 66 | 1012.6 |
| 20260906041504 | 83 | 298 | 0.0 | 0.0 | 0.00 | 0.00 | 0.00 | 65 | 1012.6 |
| 20260906041001 | 83 | 298 | 0.0 | 0.0 | 0.00 | 0.00 | 0.00 | 65 | 1012.6 |
| 20260906040509 | 84 | 298 | 0.0 | 0.0 | 0.00 | 0.00 | 0.00 | 64 | 1012.7 |
| 20260906040003 | 84 | 298 | 0.0 | 0.0 | 0.00 | 0.00 | 0.00 | 64 | 1012.6 |
| 20260906035509 | 84 | 298 | 0.0 | 0.0 | 0.00 | 0.00 | 0.00 | 64 | 1012.7 |
| 20260906035021 | 84 | 298 | 0.0 | 0.0 | 0.00 | 0.00 | 0.00 | 64 | 1012.7 |
| 20260906034503 | 84 | 298 | 0.0 | 0.0 | 0.00 | 0.00 | 0.00 | 64 | 1012.7 |
| 20260906034009 | 84 | 298 | 0.0 | 0.0 | 0.00 | 0.00 | 0.00 | 64 | 1012.6 |
| 20260906033505 | 84 | 298 | 0.0 | 0.0 | 0.00 | 0.00 | 0.00 | 63 | 1012.5 |
| 20260906033014 | 85 | 298 | 0.0 | 0.0 | 0.00 | 0.00 | 0.00 | 63 | 1012.5 |
| 20260906032507 | 85 | 298 | 0.0 | 0.0 | 0.00 | 0.00 | 0.00 | 63 | 1012.6 |
| 20260906032002 | 85 | 298 | 0.0 | 0.0 | 0.00 | 0.00 | 0.00 | 62 | 1012.7 |
| 20260906031522 | 85 | 298 | 0.0 | 0.0 | 0.00 | 0.00 | 0.00 | 62 | 1012.7 |
| 20260906031007 | 85 | 298 | 0.0 | 0.0 | 0.00 | 0.00 | 0.00 | 62 | 1012.7 |
| 20260906030504 | 86 | 298 | 0.0 | 0.0 | 0.00 | 0.00 | 0.00 | 61 | 1012.8 |
| 20260906030016 | 86 | 298 | 0.0 | 0.0 | 0.00 | 0.00 | 0.00 | 60 | 1012.8 |
| 20260906025506 | 86 | 298 | 0.0 | 0.0 | 0.00 | 0.00 | 0.00 | 60 | 1012.7 |
| 20260906025004 | 86 | 298 | 0.0 | 2.0 | 0.00 | 0.00 | 0.00 | 60 | 1012.7 |
| 20260906024513 | 86 | 298 | 1.0 | 3.0 | 0.00 | 0.00 | 0.00 | 60 | 1012.5 |
| 20260906024002 | 86 | 298 | 1.0 | 3.0 | 0.00 | 0.00 | 0.00 | 60 | 1012.5 |
| 20260906023512 | 86 | 162 | 0.0 | 0.0 | 0.00 | 0.00 | 0.00 | 59 | 1012.3 |
| 20260906023013 | 86 | 162 | 0.0 | 0.0 | 0.00 | 0.00 | 0.00 | 58 | 1012.3 |
| 20260906022503 | 86 | 162 | 0.0 | 0.0 | 0.00 | 0.00 | 0.00 | 58 | 1012.1 |
| 20260906022010 | 87 | 162 | 0.0 | 0.0 | 0.00 | 0.00 | 0.00 | 57 | 1012.0 |
| 20260906021510 | 87 | 162 | 0.0 | 0.0 | 0.00 | 0.00 | 0.00 | 57 | 1012.0 |
| 20260906021003 | 87 | 162 | 0.0 | 0.0 | 0.00 | 0.00 | 0.00 | 56 | 1011.9 |
| 20260906020510 | 87 | 162 | 0.0 | 0.0 | 0.00 | 0.00 | 0.00 | 56 | 1012.0 |
| 20260906020008 | 88 | 162 | 0.0 | 0.0 | 0.00 | 0.00 | 0.00 | 55 | 1011.9 |
| 20260906015513 | 88 | 162 | 0.0 | 0.0 | 0.00 | 0.00 | 0.00 | 55 | 1011.9 |
| 20260906015007 | 88 | 162 | 0.0 | 0.0 | 0.00 | 0.00 | 0.00 | 54 | 1011.9 |
| 20260906014504 | 88 | 162 | 0.0 | 0.0 | 0.00 | 0.00 | 0.00 | 54 | 1011.8 |
| 20260906014010 | 89 | 162 | 0.0 | 0.0 | 0.00 | 0.00 | 0.00 | 54 | 1011.8 |
| 20260906013506 | 89 | 162 | 0.0 | 0.0 | 0.00 | 0.00 | 0.00 | 52 | 1011.8 |
| 20260906013004 | 89 | 162 | 0.0 | 0.0 | 0.00 | 0.00 | 0.00 | 52 | 1011.7 |
| 20260906012513 | 90 | 162 | 0.0 | 0.0 | 0.00 | 0.00 | 0.00 | 52 | 1011.5 |
| 20260906012005 | 90 | 162 | 0.0 | 0.0 | 0.00 | 0.00 | 0.00 | 51 | 1011.5 |
| 20260906011524 | 91 | 162 | 0.0 | 0.0 | 0.00 | 0.00 | 0.00 | 49 | 1011.4 |
| 20260906011009 | 91 | 162 | 0.0 | 0.0 | 0.00 | 0.00 | 0.00 | 49 | 1011.4 |
| 20260906010503 | 92 | 162 | 0.0 | 0.0 | 0.00 | 0.00 | 0.00 | 48 | 1011.4 |
| 20260906010023 | 92 | 162 | 0.0 | 0.0 | 0.00 | 0.00 | 0.00 | 48 | 1011.3 |
| 20260906005510 | 93 | 162 | 0.0 | 0.0 | 0.00 | 0.00 | 0.00 | 47 | 1011.3 |
| 20260906005003 | 93 | 162 | 0.0 | 0.0 | 0.00 | 0.00 | 0.00 | 46 | 1011.3 |
| 20260906004517 | 94 | 162 | 0.0 | 0.0 | 0.00 | 0.00 | 0.00 | 45 | 1011.3 |
| 20260906004003 | 94 | 162 | 0.0 | 0.0 | 0.00 | 0.00 | 0.00 | 45 | 1011.3 |
| 20260906003515 | 95 | 162 | 0.0 | 0.0 | 0.00 | 0.00 | 0.00 | 43 | 1011.3 |
| 20260906003012 | 96 | 162 | 0.0 | 0.0 | 0.00 | 0.00 | 0.00 | 43 | 1011.3 |
| 20260906002504 | 96 | 162 | 0.0 | 2.0 | 0.00 | 0.00 | 0.00 | 41 | 1011.3 |
| 20260906002012 | 97 | 162 | 0.0 | 2.0 | 0.00 | 0.00 | 0.00 | 41 | 1011.3 |
| 20260906001508 | 97 | 187 | 0.0 | 2.0 | 0.00 | 0.00 | 0.00 | 40 | 1011.3 |
| 20260906001003 | 98 | 187 | 0.0 | 3.0 | 0.00 | 0.00 | 0.00 | 40 | 1011.3 |
| 20260906000512 | 98 | 187 | 1.0 | 3.0 | 0.00 | 0.00 | 0.00 | 39 | 1011.3 |
| 20260906000008 | 98 | 192 | 2.0 | 4.0 | 0.00 | 0.00 | 0.00 | 38 | 1011.2 |
| 20260905235515 | 99 | 186 | 2.0 | 4.0 | 0.00 | 0.00 | 0.00 | 37 | 1011.2 |
| 20260905235008 | 99 | 181 | 2.0 | 4.0 | 0.00 | 0.00 | 0.00 | 36 | 1011.2 |
| 20260905234528 | 100 | 219 | 1.0 | 4.0 | 0.00 | 0.00 | 0.00 | 1011.2 | |
| 20260905234012 | 100 | 179 | 1.0 | 4.0 | 0.00 | 0.00 | 0.00 | 1011.1 | |
| 20260905233507 | 101 | 215 | 0.0 | 4.0 | 0.00 | 0.00 | 0.00 | 1011.0 | |
| 20260905233006 | 101 | 187 | 1.0 | 5.0 | 0.00 | 0.00 | 0.00 | 1011.0 | |
| 20260905232512 | 101 | 175 | 1.0 | 5.0 | 0.00 | 0.00 | 0.00 | 35 | 1011.0 |
| 20260905232006 | 101 | 279 | 1.0 | 7.0 | 0.00 | 0.00 | 0.00 | 35 | 1011.0 |
| 20260905231526 | 101 | 164 | 2.0 | 9.0 | 0.00 | 0.00 | 0.00 | 34 | 1011.0 |
| 20260905231011 | 101 | 187 | 3.0 | 8.0 | 0.00 | 0.00 | 0.00 | 33 | 1011.1 |
| 20260905230504 | 102 | 196 | 3.0 | 8.0 | 0.00 | 0.00 | 0.00 | 33 | 1011.1 |
| 20260905230037 | 102 | 183 | 1.0 | 7.0 | 0.00 | 0.00 | 0.00 | 34 | 1011.0 |
| 20260905225510 | 102 | 173 | 4.0 | 8.0 | 0.00 | 0.00 | 0.00 | 33 | 1011.1 |
| 20260905225018 | 102 | 216 | 4.0 | 8.0 | 0.00 | 0.00 | 0.00 | 34 | 1011.1 |
| 20260905224549 | 102 | 196 | 3.0 | 8.0 | 0.00 | 0.00 | 0.00 | 34 | 1011.1 |
| 20260905224004 | 102 | 207 | 2.0 | 7.0 | 0.00 | 0.00 | 0.00 | 33 | 1011.2 |
| 20260905223514 | 102 | 191 | 2.0 | 6.0 | 0.00 | 0.00 | 0.00 | 33 | 1011.2 |
| 20260905223020 | 102 | 175 | 3.0 | 7.0 | 0.00 | 0.00 | 0.00 | 33 | 1011.3 |
| 20260905222506 | 102 | 153 | 4.0 | 10.0 | 0.00 | 0.00 | 0.00 | 33 | 1011.3 |
| 20260905222014 | 102 | 164 | 3.0 | 10.0 | 0.00 | 0.00 | 0.00 | 32 | 1011.3 |
| 20260905221513 | 102 | 158 | 3.0 | 8.0 | 0.00 | 0.00 | 0.00 | 32 | 1011.4 |
| 20260905221017 | 102 | 156 | 3.0 | 8.0 | 0.00 | 0.00 | 0.00 | 36 | 1011.4 |
| 20260905220513 | 101 | 181 | 5.0 | 8.0 | 0.00 | 0.00 | 0.00 | 34 | 1011.4 |
| 20260905220010 | 102 | 189 | 1.0 | 8.0 | 0.00 | 0.00 | 0.00 | 33 | 1011.5 |
| 20260905215515 | 103 | 181 | 3.0 | 8.0 | 0.00 | 0.00 | 0.00 | 32 | 1011.5 |
| 20260905215014 | 103 | 119 | 3.0 | 8.0 | 0.00 | 0.00 | 0.00 | 33 | 1011.6 |
| 20260905214508 | 103 | 183 | 3.0 | 9.0 | 0.00 | 0.00 | 0.00 | 32 | 1011.6 |
| 20260905214016 | 103 | 194 | 5.0 | 9.0 | 0.00 | 0.00 | 0.00 | 33 | 1011.7 |
| 20260905213510 | 103 | 83 | 1.0 | 5.0 | 0.00 | 0.00 | 0.00 | 38 | 1011.7 |
| 20260905213036 | 102 | 110 | 2.0 | 6.0 | 0.00 | 0.00 | 0.00 | 36 | 1011.7 |
| 20260905212517 | 102 | 156 | 1.0 | 8.0 | 0.00 | 0.00 | 0.00 | 36 | 1011.7 |
| 20260905212008 | 102 | 190 | 4.0 | 8.0 | 0.00 | 0.00 | 0.00 | 35 | 1011.8 |
| 20260905211540 | 103 | 31 | 0.0 | 6.0 | 0.00 | 0.00 | 0.00 | 35 | 1011.8 |
| 20260905211016 | 102 | 100 | 3.0 | 8.0 | 0.00 | 0.00 | 0.00 | 37 | 1011.9 |
| 20260905210507 | 102 | 193 | 1.0 | 8.0 | 0.00 | 0.00 | 0.00 | 37 | 1012.0 |
| 20260905210039 | 101 | 275 | 2.0 | 9.0 | 0.00 | 0.00 | 0.00 | 37 | 1012.1 |
| 20260905205509 | 101 | 222 | 4.0 | 9.0 | 0.00 | 0.00 | 0.00 | 37 | 1012.2 |
| 20260905205019 | 101 | 32 | 0.0 | 10.0 | 0.00 | 0.00 | 0.00 | 36 | 1012.2 |
| 20260905204532 | 101 | 214 | 6.0 | 10.0 | 0.00 | 0.00 | 0.00 | 37 | 1012.3 |
| 20260905204010 | 102 | 279 | 4.0 | 8.0 | 0.00 | 0.00 | 0.00 | 37 | 1012.3 |
| 20260905203515 | 101 | 214 | 2.0 | 6.0 | 0.00 | 0.00 | 0.00 | 37 | 1012.4 |
| 20260905203020 | 100 | 171 | 2.0 | 8.0 | 0.00 | 0.00 | 0.00 | 39 | 1012.5 |
| 20260905202507 | 101 | 150 | 2.0 | 8.0 | 0.00 | 0.00 | 0.00 | 38 | 1012.6 |
| 20260905202013 | 101 | 129 | 4.0 | 8.0 | 0.00 | 0.00 | 0.00 | 38 | 1012.8 |
| 20260905201521 | 103 | 91 | 1.0 | 6.0 | 0.00 | 0.00 | 0.00 | 37 | 1012.8 |
| 20260905201015 | 102 | 60 | 1.0 | 6.0 | 0.00 | 0.00 | 0.00 | 40 | 1012.9 |
| 20260905200516 | 102 | 116 | 3.0 | 7.0 | 0.00 | 0.00 | 0.00 | 38 | 1013.0 |
| 20260905200034 | 101 | 140 | 3.0 | 12.0 | 0.00 | 0.00 | 0.00 | 38 | 1013.1 |
| 20260905195515 | 102 | 94 | 3.0 | 12.0 | 0.00 | 0.00 | 0.00 | 37 | 1013.2 |
| 20260905195011 | 102 | 132 | 5.0 | 8.0 | 0.00 | 0.00 | 0.00 | 38 | 1013.2 |
| 20260905194512 | 100 | 176 | 3.0 | 7.0 | 0.00 | 0.00 | 0.00 | 39 | 1013.2 |
| 20260905194016 | 101 | 163 | 2.0 | 5.0 | 0.00 | 0.00 | 0.00 | 40 | 1013.4 |
| 20260905193509 | 101 | 134 | 2.0 | 8.0 | 0.00 | 0.00 | 0.00 | 38 | 1013.4 |
| 20260905193031 | 101 | 131 | 3.0 | 10.0 | 0.00 | 0.00 | 0.00 | 39 | 1013.5 |
| 20260905192513 | 101 | 139 | 7.0 | 10.0 | 0.00 | 0.00 | 0.00 | 39 | 1013.6 |